FREGAT DEB (TANK), 43089

Orbit data source: Space-Track

FREGAT DEB (TANK), 43089 is space debris in LEO originally from a launch on Tue, 26 Dec 2017 UTC launched from the Tyuratam Missile And Space Complex (TTMTR). Debris objects in space refer to the collection of defunct objects orbiting the Earth. Examples of debris include non-operational satellites, rocket bodies, and fragments generated from explosions, collisions, or faulty payload assembly.

Loading next visibility...
Identifier
43089, 2017-086C
Orbit
LEO
Country
Flag of CISCIS
Related business
Manufacturer
Lavochkin
Mission
Spacecraft
Bus & Motor
FREGAT SBB, Unknown motor
Mass
360 kg wet, 360 kg dry
Launch date (UTC)
2017-12-26 (8 years ago)
Launch vehicle
Unknown
Launch site
Tyuratam Missile And Space Complex (TTMTR)
Object type
Payload
Rocket body
Debris
Shape & HBR
Torus, 1.9 m
Radar Cross Section
6.703 m², Large (>1 m²)

Expand to show TLE details & history
Last TLE update: 16 hours ago

TLE from 16 hours ago
0 FREGAT DEB (TANK)
1 43089U 17086C   25258.94225576  .00063201  54729-5  11914-2 0  9990
2 43089  50.3670 144.9632 1426924 196.2940 158.7077 12.72523410325265
Epoch: 2025-09-15T22:36Z
TLE epoch observation values (Epoch: 2025-09-15T22:36:50.897Z)
Latitude
0.00001°
Longitude
170.61146°
Altitude
2,419.745 km
Speed
6.262 km/s
True Right ascension
09h 39m 51s
True Declination
0° 00' 00"
Sunlit
Object was in daylight at epoch
Visualization orbit readout
Latitude
Unknown
Longitude
Unknown
Altitude
Unknown
Speed
Unknown
Apparent Right ascension
Unknown
Apparent Declination
Unknown
Sunlit
N/A
Visualization observer readout
Local Sidereal Time
07:09:21
Azimuth
Unknown
Elevation
Unknown
Doppler factor
Unknown
Orbital elements
Apogee altitude
2,478.262 km
Perigee altitude
266.396 km
Semi-major axis
7,750.466 km
Eccentricity
0.14269
Inclination
50.367°
RAAN
144.9632°
Arg. of periapsis
196.294°
True anomaly
163.78896°
Mean anomaly
158.7077°
Eccentric anomaly
161.32548°
Mean motion
3.18091 °/min
Orbital period
113.18 mins
BSTAR
0.0011914
Loading maneuver chart data...
Computing Atmospheric mass density...
Loading historical data...
Loading historical data...
Loading historical data...
Loading historical data...
Loading historical data...
Loading historical data...
Loading historical data...

Documentation

Showing up to 5 results
|